Flag for Germany Weather past 2 weeks in Wetzlar, Hesse, Germany

Now
53 °F

Rain. Low clouds.


Feels Like: 53 °F
Forecast: 37 / 51 °F
Wind: 3 mph from Northwest

Location: Giessen

Current Time: Apr 27, 2015 at 4:08:24 AM

Latest Report: Apr 27, 2015 at 3:00 AM


Visibility: 2 mi

Pressure: 29.61 "Hg

Humidity: 97%

Dew point: 52 °F

Location of WetzlarLocation

Historic Weather in Wetzlar — Graph

°F

Wetzlar temperature yesterday

Maximum temperature yesterday: 67 °F (at 5:00 PM)
Minimum temperature yesterday: 45 °F (at 2:00 AM)
Average temperature yesterday: 56 °F

Past Weeks' High & Low Weather Summary

 TemperatureHumidityPressure
High74 °F (Apr 15, 5:00 PM)98% (Apr 26, 2:00 AM)30.47 "Hg (Apr 26, 2:00 AM)
Low31 °F (Apr 19, 6:00 AM)21% (Apr 21, 5:00 PM)29.61 "Hg (Apr 27, 2:00 AM)
Average52 °F62%30.15 "Hg
* Reported Apr 12 2:00 AM — Apr 27 2:00 AM, Wetzlar, Weather by CustomWeather, © 2015

Note: Actual official high and low records may vary slightly from our data, if they occured in-between our weather recording intervals... More about our weather records

Advertising

Wetzlar weather history for previous 24 hours

 ConditionsComfort  
Time TempWeatherWind HumidityBarometerVisibility
2:00 AM
Mon, Apr 27
54 °FLight rain. Low clouds.3 mph96%29.61 "Hg4 mi
1:00 AM55 °FLight rain. Low clouds.1 mph94%29.64 "Hg4 mi
12:00 AM56 °FLight rain. Low clouds.2 mph86%29.63 "Hg7 mi
11:00 PM
Sun, Apr 26
56 °FOvercast.2 mph88%29.65 "Hg19 mi
10:00 PM58 °FOvercast.2 mph81%29.66 "Hg25 mi
9:00 PM61 °FOvercast.1 mph72%29.66 "Hg37 mi
8:00 PM62 °FOvercast.2 mph70%29.65 "Hg31 mi
7:00 PM64 °FOvercast.3 mph68%29.64 "Hg31 mi
6:00 PM66 °FOvercast.6 mph49%29.65 "Hg43 mi
5:00 PM67 °FOvercast.5 mph55%29.67 "Hg31 mi
4:00 PM64 °FOvercast.6 mph60%29.69 "Hg43 mi
3:00 PM62 °FOvercast.5 mph68%29.72 "Hg34 mi
2:00 PM61 °FOvercast.6 mph72%29.73 "Hg28 mi
1:00 PM62 °FOvercast.5 mph66%29.74 "Hg34 mi
12:00 PM62 °FOvercast.6 mph72%29.77 "Hg25 mi
11:00 AM58 °FOvercast.3 mph81%29.78 "Hg16 mi
10:00 AM57 °FOvercast.3 mph90%29.78 "Hg8 mi
9:00 AM53 °FFog.1 mph98%29.79 "Hg2 mi
8:00 AM49 °FFog.1 mph98%29.80 "Hg2 mi
7:00 AM47 °FOvercast.1 mph98%29.80 "Hg1 mi
6:00 AM47 °FOvercast.1 mph98%29.80 "Hg2 mi
5:00 AM46 °FOvercast.1 mph98%29.81 "Hg1 mi
4:00 AM45 °FPassing clouds.1 mph98%29.82 "Hg0 mi
Weather by CustomWeather, © 2015

See weather overviewHow to use our weather pages